Temp
5 5 6 6 6 5 5 5 4 5 6 5 6 6 6 6 7 6 6 6 6 6 6 5 5 5 6 6 6 7 7 7 7 7 7 7 7 7 7 7 7 7 6 6
4 5 5 5 5 4 4 4 5 5 5 5 5 5 6 7 6 6 7 7 6 5 5 5 5 5 5 6 6 6 6 6 7 7 7 7 7 7 6 6 6 6 6 6
4 4 4 4 4 5 5 4 4 4 5 5 4 4 5 7 6 5 6 6 6 6 5 5 4 4 5 5 5 5 5 5 5 5 5 6 6 6 6 6 5 5 5 5
3 3 3 4 4 3 3 4 4 4 4 4 3 3 4 6 6 6 5 5 5 5 5 4 4 4 4 4 4 4 4 4 4 4 4 4 4 4 4 4 4 4 4 4
3 2 3 4 4 4 4 4 4 3 3 3 3 2 5 5 5 6 5 5 6 5 4 4 4 4 3 3 3 3 3 3 3 3 3 2 2 2 2 2 2 2 2 2
2 2 2 3 3 3 3 3 3 3 2 -1 4 3 4 5 6 6 6 5 5 4 4 3 3 3 2 2 2 2 2 1 1 1 1 1 1 1 1 1 1 1 1 1
2 3 3 3 3 3 3 2 2 -1 -3 -1 3 3 4 4 4 4 4 4 5 4 4 3 3 2 1 1 0 0 1 1 1 -0 -1 -1 -0 -0 -0 -0 -0 1 1 1
2 2 3 3 3 2 2 2 3 -0 -2 -1 3 2 4 3 3 3 4 3 3 3 3 2 1 1 0 -0 -1 -1 -1 0 -1 -1 -1 -0 -1 -1 -2 -2 -1 -1 -1 -0
2 2 2 2 2 1 1 1 1 1 1 -1 1 2 2 2 2 2 1 1 1 1 1 -0 -0 -0 -0 -0 -0 -1 -1 -1 -2 -2 -2 -2 -2 -1 -2 -2 -2 -2 -2 -1
1 1 1 1 1 0 0 1 0 -0 -4 -5 -1 1 1 1 1 1 -0 -1 -1 -1 -1 -1 -1 -1 -2 -2 -2 -2 -3 -3 -3 -3 -3 -3 -3 -3 -3 -3 -3 -3 -3 -3
-0 -0 0 0 -0 -0 -0 -0 -1 -1 -1 -5 -5 -0 -0 -0 -0 -1 -1 -1 -1 -2 -3 -3 -4 -4 -4 -5 -5 -5 -5 -4 -5 -5 -5 -5 -5 -5 -4 -5 -5 -5 -4 -4
-1 -1 -1 -0 -1 -1 -1 -1 -2 -2 -2 -2 -1 -2 -1 -1 -2 -2 -3 -3 -3 -4 -5 -5 -5 -5 -5 -5 -6 -6 -6 -6 -7 -7 -7 -7 -7 -7 -7 -6 -7 -7 -7 -7
-2 -3 -3 -2 -2 -2 -2 -2 -3 -4 -4 -3 -4 -2 -2 -2 -3 -4 -4 -4 -4 -4 -4 -5 -6 -6 -6 -7 -8 -8 -8 -9 -9 -9 -9 -9 -9 -9 -9 -9 -9 -9 -9 -9
-3 -3 -3 -3 -2 -3 -3 -3 -3 -4 -5 -5 -5 -4 -2 -2 -3 -4 -5 -5 -5 -6 -6 -7 -7 -7 -8 -8 -8 -9 -10 -11 -11 -11 -11 -11 -11 -11 -11 -10 -10 -10 -10 -9
-4 -4 -4 -4 -4 -4 -5 -4 -4 -5 -5 -7 -4 -5 -3 -4 -5 -5 -6 -6 -7 -7 -7 -7 -8 -8 -9 -10 -11 -12 -12 -12 -12 -12 -12 -12 -12 -12 -12 -12 -12 -12 -12 -12
-5 -5 -6 -6 -5 -5 -6 -5 -6 -6 -6 -6 -6 -6 -5 -6 -7 -7 -7 -7 -7 -8 -8 -8 -9 -9 -10 -11 -12 -12 -12 -12 -12 -13 -13 -13 -13 -13 -13 -13 -13 -13 -13 -13
-6 -7 -7 -7 -7 -8 -9 -4 -4 -5 -5 -6 -7 -7 -8 -8 -8 -8 -8 -8 -8 -9 -9 -10 -10 -11 -12 -12 -12 -12 -13 -13 -13 -13 -14 -14 -14 -14 -14 -14 -14 -14 -14 -14
-6 -7 -8 -8 -9 -14 -6 -6 -7 -7 -7 -8 -8 -8 -8 -8 -8 -8 -9 -9 -10 -10 -11 -12 -12 -12 -13 -13 -13 -14 -14 -14 -14 -14 -14 -14 -15 -15 -15 -15 -15 -15 -15 -14
-7 -8 -10 -10 -10 -9 -6 -7 -7 -8 -7 -7 -8 -9 -9 -10 -10 -10 -10 -11 -11 -12 -12 -13 -13 -13 -13 -13 -14 -14 -14 -14 -15 -15 -15 -15 -15 -15 -15 -15 -15 -15 -15 -15
-6 -8 -11 -11 -12 -15 -8 -8 -9 -10 -10 -9 -10 -11 -11 -11 -11 -11 -12 -12 -12 -12 -12 -12 -13 -13 -14 -14 -15 -14 -15 -15 -15 -15 -15 -15 -15 -16 -15 -15 -16 -16 -16 -16
-9 -10 -11 -12 -11 -11 -10 -10 -10 -11 -10 -11 -11 -11 -12 -12 -13 -13 -13 -13 -13 -13 -13 -13 -14 -15 -15 -15 -15 -15 -15 -15 -15 -15 -16 -16 -16 -16 -16 -16 -16 -16 -16 -16
-9 -9 -11 -12 -12 -13 -11 -11 -11 -11 -12 -12 -12 -13 -13 -13 -13 -13 -13 -13 -14 -14 -14 -15 -15 -15 -15 -16 -15 -16 -16 -16 -16 -16 -16 -16 -16 -16 -17 -17 -17 -17 -17 -16
-10 -9 -9 -10 -10 -10 -11 -11 -12 -12 -12 -12 -13 -13 -13 -14 -14 -14 -14 -14 -14 -15 -15 -15 -16 -16 -16 -16 -16 -16 -16 -16 -16 -16 -16 -16 -16 -17 -17 -17 -17 -17 -17 -17
-11 -11 -11 -11 -11 -11 -12 -12 -12 -12 -13 -13 -13 -13 -14 -15 -15 -14 -14 -14 -14 -15 -16 -16 -16 -16 -16 -16 -16 -16 -16 -16 -16 -16 -16 -17 -17 -17 -17 -17 -17 -17 -17 -18
-11 -12 -12 -13 -12 -12 -12 -12 -12 -13 -13 -14 -14 -14 -14 -15 -15 -15 -15 -15 -15 -15 -16 -16 -16 -16 -16 -16 -17 -17 -17 -17 -16 -16 -17 -17 -17 -17 -17 -17 -17 -17 -18 -18
-10 -11 -12 -12 -12 -13 -13 -12 -13 -13 -14 -14 -14 -15 -15 -15 -15 -15 -15 -15 -16 -16 -16 -16 -16 -17 -17 -17 -17 -17 -17 -17 -17 -17 -17 -17 -18 -18 -18 -17 -17 -17 -18 -19
Height
3140 3139 3142 3146 3146 3145 3144 3142 3142 3142 3143 3139 3138 3135 3136 3136 3136 3131 3127 3125 3126 3126 3124 3121 3120 3120 3119 3119 3118 3118 3117 3117 3116 3115 3114 3112 3111 3110 3110 3110 3111 3111 3112 3112
3135 3134 3138 3138 3139 3139 3139 3138 3137 3137 3137 3134 3133 3131 3132 3131 3128 3127 3124 3120 3119 3120 3119 3118 3118 3118 3117 3116 3116 3114 3114 3112 3111 3111 3111 3109 3107 3106 3104 3102 3101 3101 3102 3103
3127 3133 3134 3133 3134 3134 3133 3132 3133 3134 3133 3131 3128 3124 3125 3127 3120 3118 3117 3117 3117 3115 3115 3115 3115 3115 3114 3113 3112 3111 3110 3108 3108 3107 3105 3105 3103 3103 3101 3098 3097 3095 3094 3093
3121 3122 3125 3127 3125 3129 3128 3128 3129 3131 3129 3126 3126 3118 3116 3116 3113 3112 3112 3111 3112 3112 3112 3112 3112 3111 3110 3109 3109 3107 3106 3105 3104 3103 3102 3101 3099 3098 3097 3096 3093 3091 3089 3087
3119 3118 3120 3120 3121 3122 3124 3124 3124 3125 3125 3121 3121 3121 3110 3109 3106 3107 3107 3109 3109 3108 3108 3108 3108 3107 3106 3105 3103 3102 3101 3101 3100 3099 3098 3097 3095 3095 3093 3092 3090 3089 3086 3083
3114 3115 3116 3117 3119 3120 3120 3121 3122 3120 3120 3118 3112 3113 3103 3103 3102 3102 3104 3105 3106 3105 3106 3105 3104 3103 3101 3100 3098 3097 3095 3094 3093 3094 3093 3093 3091 3090 3089 3088 3087 3084 3082 3080
3112 3112 3114 3113 3114 3115 3116 3116 3116 3118 3117 3110 3105 3105 3097 3099 3096 3099 3100 3101 3102 3103 3101 3099 3098 3097 3096 3095 3093 3091 3089 3088 3087 3086 3085 3084 3083 3083 3082 3080 3079 3078 3075 3072
3107 3107 3109 3109 3108 3110 3109 3112 3112 3111 3112 3104 3105 3099 3093 3094 3093 3093 3096 3097 3096 3097 3097 3096 3095 3091 3091 3090 3089 3086 3083 3080 3080 3078 3076 3074 3074 3073 3072 3071 3071 3070 3068 3065
3100 3098 3098 3101 3101 3105 3104 3104 3105 3103 3104 3102 3097 3097 3093 3090 3090 3090 3092 3093 3092 3091 3090 3090 3089 3087 3085 3083 3080 3079 3077 3075 3072 3070 3070 3068 3067 3065 3062 3061 3059 3059 3057 3055
3095 3096 3096 3097 3096 3098 3100 3101 3100 3099 3104 3103 3090 3089 3088 3085 3084 3086 3086 3086 3088 3086 3084 3082 3082 3080 3079 3077 3075 3073 3071 3070 3068 3064 3061 3059 3057 3055 3052 3051 3048 3048 3045 3043
3089 3090 3091 3090 3089 3091 3093 3092 3093 3094 3094 3091 3092 3085 3082 3080 3079 3080 3081 3081 3081 3079 3077 3076 3074 3073 3071 3069 3067 3066 3063 3062 3058 3053 3050 3049 3049 3046 3042 3040 3040 3038 3034 3032
3084 3084 3081 3082 3085 3086 3086 3085 3087 3086 3084 3083 3083 3080 3077 3076 3074 3074 3074 3073 3072 3071 3069 3067 3065 3063 3062 3060 3057 3054 3051 3052 3049 3043 3040 3039 3037 3035 3032 3030 3027 3024 3021 3020
3076 3078 3078 3075 3077 3076 3078 3078 3079 3080 3077 3076 3078 3071 3074 3070 3070 3069 3068 3065 3064 3062 3059 3056 3054 3052 3050 3047 3044 3041 3039 3040 3034 3031 3031 3029 3028 3026 3022 3018 3015 3012 3009 3006
3068 3068 3070 3068 3070 3071 3072 3072 3073 3075 3075 3071 3067 3064 3065 3067 3065 3061 3058 3055 3053 3050 3048 3046 3044 3042 3040 3039 3037 3034 3031 3027 3024 3022 3020 3018 3016 3013 3010 3007 3004 2999 2997 2992
3060 3060 3062 3062 3064 3065 3065 3063 3063 3064 3064 3063 3056 3057 3055 3056 3052 3050 3047 3046 3044 3041 3038 3036 3035 3034 3031 3028 3026 3025 3022 3019 3018 3015 3012 3008 3005 3002 2998 2994 2989 2986 2982 2978
3051 3053 3054 3052 3056 3057 3053 3051 3051 3051 3049 3047 3046 3043 3046 3043 3041 3039 3037 3037 3034 3031 3028 3026 3023 3021 3019 3017 3016 3013 3010 3007 3003 3001 2998 2995 2992 2988 2984 2981 2977 2972 2968 2963
3045 3046 3049 3046 3047 3047 3043 3036 3039 3038 3038 3036 3034 3034 3035 3034 3032 3030 3030 3027 3024 3022 3020 3017 3014 3011 3009 3008 3007 3004 3001 2997 2992 2988 2985 2982 2978 2975 2971 2967 2962 2956 2951 2945
3036 3040 3041 3039 3043 3044 3027 3028 3028 3027 3028 3028 3027 3026 3025 3024 3023 3021 3019 3016 3015 3013 3011 3010 3008 3005 3002 3000 2996 2994 2991 2987 2984 2979 2975 2971 2966 2961 2957 2951 2945 2939 2932 2926
3026 3029 3033 3033 3029 3024 3022 3021 3022 3022 3020 3019 3019 3018 3015 3013 3012 3011 3009 3007 3005 3004 3002 3000 2998 2996 2994 2991 2987 2984 2980 2976 2972 2969 2964 2960 2954 2948 2942 2935 2928 2920 2910 2904
3015 3017 3022 3021 3019 3018 3012 3011 3012 3013 3008 3010 3008 3007 3006 3004 3001 3003 3001 2999 2998 2996 2994 2992 2989 2987 2984 2981 2978 2974 2970 2966 2961 2957 2952 2948 2941 2934 2927 2918 2909 2900 2892 2883
3009 3010 3007 3006 3007 3003 3003 3005 3006 3007 3002 2998 2999 2999 2998 2996 2994 2993 2991 2989 2988 2986 2984 2982 2979 2977 2975 2972 2969 2965 2960 2955 2951 2946 2941 2936 2928 2920 2910 2902 2892 2883 2874 2863
3002 3004 3000 3003 3000 2996 2995 2997 2999 2997 2992 2992 2991 2991 2989 2987 2985 2983 2981 2978 2977 2974 2973 2972 2969 2967 2964 2961 2957 2954 2950 2945 2940 2936 2930 2923 2915 2906 2897 2888 2878 2867 2855 2841
2996 2991 2992 2991 2987 2985 2985 2988 2988 2986 2985 2984 2983 2981 2978 2976 2974 2973 2971 2970 2967 2965 2964 2961 2959 2957 2954 2950 2947 2943 2939 2934 2930 2925 2918 2910 2901 2892 2883 2873 2863 2850 2838 2823
2983 2983 2980 2978 2979 2979 2980 2979 2978 2978 2975 2974 2972 2970 2968 2966 2965 2964 2962 2960 2958 2955 2953 2951 2949 2946 2943 2940 2936 2932 2928 2925 2920 2914 2907 2898 2889 2880 2872 2862 2849 2837 2825 2811
2975 2973 2968 2967 2968 2968 2968 2968 2968 2967 2966 2964 2963 2961 2959 2957 2955 2953 2951 2949 2947 2945 2942 2940 2938 2935 2933 2929 2926 2921 2917 2914 2908 2902 2894 2885 2876 2868 2860 2850 2839 2827 2814 2801
2964 2959 2960 2954 2958 2957 2957 2957 2956 2955 2954 2953 2952 2951 2949 2947 2945 2942 2940 2938 2936 2933 2931 2929 2927 2925 2922 2919 2916 2911 2908 2903 2897 2890 2882 2874 2865 2857 2849 2838 2830 2825 2808 2795
Wind_Speed
17 21 21 17 20 21 16 18 22 24 22 28 26 24 21 24 10 20 23 26 25 27 29 26 11 11 12 13 12 12 14 13 13 14 14 17 19 21 22 26 32 39 43 45
26 27 22 18 18 19 20 26 29 28 23 18 20 25 28 21 22 19 24 28 30 27 22 16 12 9 6 8 9 12 14 16 15 15 16 17 18 20 23 24 25 27 31 35
30 24 19 18 17 20 24 25 27 24 15 19 25 28 22 21 27 25 27 27 31 30 20 18 15 10 10 12 15 16 17 17 18 18 18 17 17 19 22 23 24 24 25 28
21 18 16 16 26 25 28 24 15 13 16 16 12 12 23 15 17 24 27 27 28 29 21 19 15 14 15 17 19 21 20 19 19 19 16 17 17 15 16 19 22 23 24 25
14 7 9 11 9 5 8 9 12 16 20 22 20 13 15 22 20 21 24 24 25 25 22 21 17 17 20 21 21 14 14 15 16 18 20 20 19 19 18 17 17 18 18 19
14 16 12 11 8 10 12 14 14 18 19 5 14 15 16 10 13 17 20 25 28 23 21 22 21 22 22 22 21 19 19 19 22 25 27 29 29 27 26 27 26 24 23 22
3 7 11 13 13 15 15 12 4 1 4 7 12 7 20 17 15 16 19 19 21 24 24 25 26 25 21 18 17 19 22 25 28 28 29 29 27 27 29 30 31 33 33 32
13 12 12 13 15 12 12 13 7 5 3 4 16 11 16 20 18 13 15 19 21 22 24 25 25 25 22 20 21 24 28 31 31 33 36 39 40 40 37 35 33 32 34 37
12 12 15 21 16 14 10 16 16 14 16 7 13 17 25 26 26 21 15 19 21 22 23 22 20 21 24 30 31 32 34 34 34 38 40 41 44 48 48 46 41 37 33 34
15 13 18 23 23 15 14 13 8 7 2 4 9 16 18 9 15 14 12 15 18 24 29 30 29 28 28 29 32 33 32 36 40 42 45 47 44 44 46 45 43 40 38 36
20 19 15 17 14 14 13 17 18 17 18 4 2 10 14 13 14 21 25 28 30 28 21 21 23 27 28 30 34 39 44 48 46 41 41 41 42 42 44 44 41 39 40 39
23 15 22 29 22 14 18 21 20 15 9 16 19 24 34 27 27 23 25 30 29 23 25 31 39 48 52 48 41 40 43 40 43 43 43 42 42 41 40 40 40 41 40 40
24 15 15 17 18 15 21 22 17 15 19 26 16 23 29 29 32 31 40 41 44 45 51 51 46 44 43 41 38 39 40 38 36 34 34 34 33 36 39 41 41 41 42 43
23 25 23 22 13 7 11 16 18 27 18 22 30 37 42 42 46 48 50 51 46 40 39 38 39 39 40 40 42 37 33 32 31 29 30 32 34 36 38 40 43 46 49 50
22 28 27 30 31 32 34 37 42 38 39 30 47 41 49 49 49 47 43 40 36 36 41 43 42 42 39 34 30 29 29 30 30 33 35 36 37 37 39 41 43 45 47 50
28 28 25 31 32 32 34 39 39 40 44 47 49 49 37 35 34 35 36 36 39 41 40 42 44 44 39 36 32 31 34 35 37 39 39 39 39 41 43 45 47 49 52 55
24 21 17 27 27 22 22 43 40 38 34 33 34 31 26 30 33 36 36 39 42 43 39 37 37 34 33 34 35 37 38 39 41 42 40 41 43 45 46 49 52 56 60 63
34 33 25 21 18 3 34 29 24 24 22 22 23 28 34 38 40 40 38 36 36 37 31 27 27 30 36 39 39 37 37 38 40 41 44 44 45 47 50 55 59 62 65 67
35 33 19 12 20 20 29 26 22 26 33 37 37 38 36 37 36 36 34 32 30 29 28 30 33 36 38 37 37 37 39 40 41 43 44 44 46 51 57 64 66 66 67 67
24 30 30 20 9 10 22 20 16 18 34 39 33 28 27 28 29 29 26 28 32 34 37 39 42 42 37 35 37 39 41 42 44 45 44 46 52 57 64 67 66 66 64 65
21 23 35 37 20 16 27 25 22 15 33 26 23 25 29 26 27 30 34 37 39 42 45 47 38 30 32 35 38 41 42 43 44 44 45 50 56 62 65 66 62 64 66 68
21 18 26 30 17 14 18 16 21 27 29 28 29 30 32 36 40 44 43 41 39 37 35 33 34 35 37 39 41 42 42 43 44 45 49 54 59 62 62 59 60 62 68 72
24 37 21 21 14 20 20 26 32 30 33 35 34 35 36 36 37 39 37 35 37 36 37 37 37 38 40 41 40 40 41 41 42 46 50 56 60 60 55 57 59 62 69 60
34 34 36 36 39 37 30 32 27 29 31 28 32 34 34 35 36 35 36 36 36 38 38 39 38 39 38 38 38 39 39 39 43 46 52 56 59 52 52 54 58 62 63 51
37 34 36 32 38 40 35 28 28 26 26 27 28 31 34 36 39 39 39 38 38 39 40 39 39 37 36 37 37 37 38 39 42 47 52 57 52 49 50 51 56 60 58 47
37 42 41 46 43 35 33 32 29 31 31 31 33 34 35 39 42 39 37 39 37 35 36 36 37 37 37 37 34 36 37 40 44 49 53 53 47 47 48 50 54 52 54 42
Wind_Direction
261 257 259 277 289 293 280 273 278 284 292 287 283 286 305 320 313 298 292 287 286 289 293 294 260 249 257 264 276 297 298 316 315 306 296 292 285 278 274 272 271 267 262 259
264 262 278 273 258 265 267 270 273 283 287 278 282 288 303 314 305 274 263 277 284 288 288 268 254 260 276 291 314 329 324 317 316 309 302 296 293 288 284 277 272 270 270 268
271 270 267 268 255 253 257 264 280 286 283 285 287 290 299 315 297 288 261 261 273 281 279 256 260 277 292 302 317 326 322 320 317 313 304 297 297 296 288 283 281 279 274 272
273 274 268 264 258 259 268 270 270 280 277 272 282 292 291 307 273 266 263 264 260 268 265 250 266 287 302 313 320 319 316 309 305 306 306 302 309 311 307 302 298 294 287 280
252 242 259 247 247 247 279 287 277 274 274 278 270 256 300 296 259 261 256 256 257 261 256 256 269 290 303 310 315 306 303 302 304 304 309 314 313 312 312 309 308 307 307 306
252 255 243 239 235 279 290 274 273 268 267 267 284 224 285 300 288 261 254 252 250 255 261 265 274 290 298 303 304 298 300 306 311 310 308 309 307 306 304 301 300 299 297 297
251 253 267 247 247 271 253 242 244 212 181 225 196 288 257 268 285 268 257 253 262 267 267 268 276 287 288 283 286 295 302 307 309 316 318 317 314 310 305 304 300 297 296 294
260 263 252 256 259 254 226 201 229 232 229 259 272 273 271 280 286 270 248 256 259 263 264 270 280 287 284 281 288 302 306 302 309 308 312 312 312 312 309 307 302 298 292 288
230 239 251 244 235 233 228 221 244 248 262 286 262 259 267 273 270 281 278 278 273 276 280 286 285 282 282 291 295 296 295 296 300 301 300 303 304 304 304 303 301 296 287 282
241 249 243 248 257 250 240 252 236 212 191 238 257 262 257 267 296 292 289 286 286 290 294 294 286 278 276 278 281 285 286 291 293 295 297 302 302 299 296 296 295 291 287 284
238 245 251 236 224 244 243 242 245 249 240 201 214 252 268 269 271 291 286 291 299 300 284 272 276 283 285 287 291 295 298 299 301 300 301 298 296 294 292 290 285 281 280 279
243 247 252 255 255 252 242 249 249 239 248 236 246 256 267 278 293 296 310 309 300 281 278 287 296 300 299 297 296 296 297 296 299 300 299 294 289 284 280 277 278 279 280 280
241 235 256 271 268 251 239 247 232 236 258 256 257 259 268 277 290 292 295 297 299 297 293 295 297 298 300 302 303 303 304 302 302 299 295 291 285 279 279 281 283 285 285 287
244 246 235 242 252 202 236 236 251 278 274 270 266 273 271 275 286 290 292 291 294 292 292 291 293 295 297 297 298 300 299 300 301 302 302 302 301 299 298 296 294 293 292 292
249 251 252 255 257 262 266 269 271 272 271 260 273 273 279 286 287 288 288 291 288 284 286 291 293 296 296 295 295 297 295 297 299 300 302 302 301 300 299 298 298 297 296 295
248 251 258 261 263 267 271 270 269 269 270 268 271 275 284 283 283 284 283 281 286 290 291 293 296 296 293 295 303 305 304 307 308 309 308 306 304 304 304 304 302 300 298 296
252 248 254 267 278 277 270 270 277 278 274 274 271 284 277 272 273 274 279 285 288 290 291 293 292 292 294 298 303 304 308 309 308 308 307 307 309 308 307 305 304 303 301 300
256 261 256 258 265 254 271 276 271 263 267 270 273 281 286 286 286 285 288 288 290 291 291 287 287 290 296 302 303 303 302 302 303 304 307 309 309 310 311 311 309 306 303 300
256 252 233 230 230 254 259 260 258 257 270 277 284 287 284 284 283 291 291 285 284 285 289 295 297 297 298 297 296 299 302 302 304 305 305 307 309 312 313 313 309 306 303 300
237 236 227 221 214 211 277 268 259 270 279 291 295 292 290 289 288 290 281 283 284 284 287 291 298 301 296 294 297 298 299 300 302 303 304 307 311 312 313 313 310 308 305 303
223 216 218 227 233 252 261 265 274 273 292 304 299 294 291 282 286 289 288 286 286 287 288 294 295 290 291 294 295 296 297 298 299 300 305 310 312 314 314 312 310 309 307 307
236 231 231 229 236 255 257 249 267 294 291 291 293 292 286 282 281 287 286 289 292 292 293 289 289 292 295 294 294 295 296 297 300 304 309 313 315 314 313 312 311 312 315 312
232 240 251 244 254 270 279 286 294 287 288 286 288 286 286 283 281 285 289 290 293 293 291 290 290 292 292 288 291 294 295 299 303 308 313 314 315 314 313 314 318 319 321 313
255 257 260 264 268 275 284 291 279 289 288 280 281 281 280 278 281 282 286 288 290 290 284 284 289 290 286 289 292 293 296 301 307 312 317 315 315 313 315 318 325 324 323 314
276 274 272 273 281 286 290 290 292 292 287 280 284 282 280 283 285 288 287 290 295 292 288 287 287 284 286 289 290 292 298 306 312 318 319 318 315 314 317 324 328 327 328 318
282 284 279 283 292 282 290 297 288 288 287 284 283 284 282 279 279 279 282 290 296 288 282 282 280 282 287 286 288 292 299 307 314 319 319 318 314 315 319 327 326 329 331 322